• In Österreich
  • Länderverzeichnis
  • Für 7 Tage
  • Wassertemperatur
  • Satellitenkarten
  • Wetterkarte
  • News
  • Widgets
  • user-avatar
    Anmelden

    Stündliche Wetter Cairns

    Heute, 13 Dezember, Mittwoch

    Zeit Temperatur Niederschläge Wind Luftdruck Luftfeuchtigkeit
    00:00 +25°C° 0 mm 4 m/S 757 mmHg 89%
    01:00 +25°C° 0 mm 4 m/S 757 mmHg 90%
    02:00 +23°C° 0 mm 4 m/S 757 mmHg 91%
    03:00 +23°C° 0 mm 4 m/S 757 mmHg 92%
    04:00 +23°C° 0 mm 4 m/S 756 mmHg 92%
    05:00 +25°C° 0 mm 4 m/S 757 mmHg 88%
    06:00 +25°C° 0 mm 4 m/S 757 mmHg 84%
    07:00 +26°C° 0 mm 5 m/S 757 mmHg 80%
    08:00 +28°C° 0 mm 5 m/S 757 mmHg 71%
    09:00 +30°C° 0 mm 5 m/S 757 mmHg 61%
    10:00 +33°C° 0 mm 5 m/S 757 mmHg 52%
    11:00 +34°C° 0 mm 6 m/S 757 mmHg 50%
    12:00 +35°C° 0 mm 6 m/S 756 mmHg 48%
    13:00 +36°C° 0 mm 6 m/S 756 mmHg 45%
    14:00 +35°C° 0 mm 6 m/S 756 mmHg 47%
    15:00 +35°C° 0 mm 6 m/S 756 mmHg 49%
    16:00 +34°C° 0 mm 6 m/S 755 mmHg 51%
    17:00 +32°C° 0 mm 5 m/S 756 mmHg 60%
    18:00 +29°C° 0 mm 5 m/S 756 mmHg 68%
    19:00 +27°C° 0 mm 4 m/S 756 mmHg 77%
    20:00 +26°C° 0 mm 4 m/S 757 mmHg 82%
    21:00 +26°C° 0 mm 3 m/S 757 mmHg 88%
    22:00 +25°C° 0 mm 3 m/S 757 mmHg 93%
    23:00 +25°C° 0 mm 3 m/S 757 mmHg 94%

    Morgen, 14 Dezember, Donnerstag

    Zeit Temperatur Niederschläge Wind Luftdruck Luftfeuchtigkeit
    00:00 +24°C° 0 mm 3 m/S 757 mmHg 95%
    01:00 +24°C° 0 mm 3 m/S 757 mmHg 96%
    02:00 +24°C° 0 mm 3 m/S 756 mmHg 96%
    03:00 +24°C° 0 mm 3 m/S 756 mmHg 96%
    04:00 +24°C° 0 mm 3 m/S 756 mmHg 96%
    05:00 +25°C° 0 mm 4 m/S 756 mmHg 92%
    06:00 +25°C° 0 mm 4 m/S 757 mmHg 88%
    07:00 +26°C° 0 mm 4 m/S 757 mmHg 84%
    08:00 +29°C° 0 mm 4 m/S 757 mmHg 71%
    09:00 +32°C° 0 mm 4 m/S 757 mmHg 58%
    10:00 +35°C° 0 mm 4 m/S 757 mmHg 45%
    11:00 +36°C° 0 mm 4 m/S 756 mmHg 42%
    12:00 +37°C° 0 mm 5 m/S 756 mmHg 39%
    13:00 +37°C° 0 mm 5 m/S 755 mmHg 36%
    14:00 +37°C° 0 mm 5 m/S 755 mmHg 39%
    15:00 +36°C° 0 mm 5 m/S 754 mmHg 42%
    16:00 +36°C° 0 mm 5 m/S 754 mmHg 45%
    17:00 +33°C° 0 mm 5 m/S 754 mmHg 55%
    18:00 +30°C° 0 mm 4 m/S 755 mmHg 66%
    19:00 +28°C° 0 mm 4 m/S 755 mmHg 77%
    20:00 +27°C° 0 mm 3 m/S 756 mmHg 82%
    21:00 +26°C° 0 mm 3 m/S 756 mmHg 88%
    22:00 +25°C° 0 mm 2 m/S 757 mmHg 94%
    23:00 +25°C° 0 mm 2 m/S 756 mmHg 94%

    übermorgen, 15 Dezember, Freitag

    Zeit Temperatur Niederschläge Wind Luftdruck Luftfeuchtigkeit
    00:00 +25°C° 0 mm 2 m/S 756 mmHg 95%
    01:00 +25°C° 0 mm 3 m/S 756 mmHg 95%
    02:00 +25°C° 0 mm 3 m/S 756 mmHg 96%
    03:00 +25°C° 0 mm 3 m/S 756 mmHg 96%
    04:00 +25°C° 0 mm 3 m/S 756 mmHg 96%
    05:00 +25°C° 0 mm 2 m/S 756 mmHg 93%
    06:00 +26°C° 0 mm 2 m/S 756 mmHg 91%
    07:00 +27°C° 0 mm 2 m/S 757 mmHg 88%
    08:00 +29°C° 0 mm 2 m/S 757 mmHg 76%
    09:00 +31°C° 0 mm 3 m/S 757 mmHg 63%
    10:00 +35°C° 0 mm 3 m/S 756 mmHg 51%
    11:00 +36°C° 0 mm 3 m/S 756 mmHg 46%
    12:00 +37°C° 0 mm 4 m/S 755 mmHg 41%
    13:00 +38°C° 0 mm 4 m/S 755 mmHg 36%
    14:00 +37°C° 0 mm 4 m/S 754 mmHg 38%
    15:00 +37°C° 0 mm 5 m/S 754 mmHg 40%
    16:00 +36°C° 0 mm 5 m/S 753 mmHg 41%
    17:00 +34°C° 0 mm 5 m/S 754 mmHg 51%
    18:00 +32°C° 0 mm 4 m/S 754 mmHg 60%
    19:00 +28°C° 0 mm 4 m/S 755 mmHg 69%
    20:00 +27°C° 0 mm 4 m/S 755 mmHg 75%
    21:00 +26°C° 0 mm 4 m/S 756 mmHg 80%
    22:00 +25°C° 0 mm 3 m/S 757 mmHg 85%
    23:00 +25°C° 0 mm 3 m/S 756 mmHg 88%

    16 Dezember, Samstag

    Zeit Temperatur Niederschläge Wind Luftdruck Luftfeuchtigkeit
    00:00 +25°C° 0 mm 3 m/S 756 mmHg 91%
    01:00 +25°C° 0 mm 4 m/S 756 mmHg 93%
    02:00 +25°C° 0 mm 4 m/S 756 mmHg 93%
    03:00 +26°C° 0 mm 4 m/S 756 mmHg 92%
    04:00 +26°C° 0 mm 4 m/S 756 mmHg 91%
    05:00 +27°C° 0 mm 3 m/S 756 mmHg 89%
    06:00 +27°C° 0 mm 3 m/S 757 mmHg 86%
    07:00 +27°C° 0 mm 3 m/S 758 mmHg 83%
    08:00 +29°C° 0 mm 3 m/S 758 mmHg 73%
    09:00 +33°C° 0 mm 4 m/S 758 mmHg 62%
    10:00 +35°C° 0 mm 4 m/S 758 mmHg 52%
    11:00 +36°C° 0 mm 4 m/S 757 mmHg 47%
    12:00 +37°C° 0 mm 4 m/S 756 mmHg 43%
    13:00 +38°C° 0 mm 4 m/S 756 mmHg 39%
    14:00 +37°C° 0 mm 5 m/S 755 mmHg 40%
    15:00 +37°C° 0 mm 5 m/S 755 mmHg 41%
    16:00 +36°C° 0 mm 5 m/S 755 mmHg 42%
    17:00 +34°C° 0 mm 5 m/S 755 mmHg 52%
    18:00 +32°C° 0 mm 5 m/S 755 mmHg 63%
    19:00 +29°C° 0 mm 5 m/S 756 mmHg 73%
    20:00 +28°C° 0 mm 4 m/S 756 mmHg 79%
    21:00 +27°C° 0 mm 4 m/S 757 mmHg 86%
    22:00 +26°C° 0 mm 4 m/S 757 mmHg 93%
    23:00 +26°C° 0 mm 4 m/S 757 mmHg 94%

    17 Dezember, Sonntag

    Zeit Temperatur Niederschläge Wind Luftdruck Luftfeuchtigkeit
    00:00 +25°C° 0 mm 4 m/S 756 mmHg 95%
    01:00 +25°C° 0 mm 4 m/S 756 mmHg 96%
    02:00 +25°C° 0 mm 4 m/S 756 mmHg 96%
    03:00 +26°C° 0 mm 4 m/S 756 mmHg 96%
    04:00 +26°C° 0 mm 4 m/S 755 mmHg 96%
    05:00 +26°C° 0,1 mm 4 m/S 756 mmHg 93%
    06:00 +27°C° 0,1 mm 4 m/S 757 mmHg 90%
    07:00 +27°C° 0,1 mm 4 m/S 757 mmHg 87%
    08:00 +30°C° 0,1 mm 4 m/S 757 mmHg 78%
    09:00 +33°C° 0,1 mm 4 m/S 757 mmHg 68%
    10:00 +35°C° 0,1 mm 4 m/S 757 mmHg 58%
    11:00 +35°C° 0,1 mm 5 m/S 756 mmHg 55%
    12:00 +36°C° 0,1 mm 5 m/S 756 mmHg 53%
    13:00 +37°C° 0,1 mm 5 m/S 755 mmHg 51%
    14:00 +36°C° 0,2 mm 5 m/S 755 mmHg 53%
    15:00 +36°C° 0,2 mm 5 m/S 754 mmHg 55%
    16:00 +35°C° 0,2 mm 5 m/S 754 mmHg 57%
    17:00 +33°C° 0,2 mm 5 m/S 754 mmHg 65%
    18:00 +32°C° 0,2 mm 5 m/S 755 mmHg 73%
    19:00 +29°C° 0,2 mm 5 m/S 755 mmHg 81%
    20:00 +28°C° 0,3 mm 4 m/S 756 mmHg 84%
    21:00 +28°C° 0,3 mm 4 m/S 756 mmHg 87%
    22:00 +27°C° 0,3 mm 4 m/S 757 mmHg 90%
    23:00 +27°C° 0,1 mm 4 m/S 756 mmHg 92%

    18 Dezember, Montag

    Zeit Temperatur Niederschläge Wind Luftdruck Luftfeuchtigkeit
    00:00 +27°C° 0,1 mm 4 m/S 756 mmHg 93%
    01:00 +26°C° 0,1 mm 3 m/S 756 mmHg 95%
    02:00 +26°C° 0,1 mm 4 m/S 756 mmHg 95%
    03:00 +26°C° 0,1 mm 4 m/S 755 mmHg 95%
    04:00 +26°C° 0,1 mm 4 m/S 755 mmHg 95%
    05:00 +26°C° 0 mm 4 m/S 756 mmHg 92%
    06:00 +27°C° 0 mm 4 m/S 756 mmHg 88%
    07:00 +27°C° 0 mm 4 m/S 756 mmHg 85%
    08:00 +30°C° 0 mm 4 m/S 756 mmHg 73%
    09:00 +33°C° 0 mm 5 m/S 756 mmHg 61%
    10:00 +35°C° 0 mm 5 m/S 756 mmHg 49%
    11:00 +36°C° 0 mm 5 m/S 756 mmHg 47%
    12:00 +38°C° 0 mm 6 m/S 755 mmHg 45%
    13:00 +39°C° 0 mm 6 m/S 754 mmHg 43%
    14:00 +38°C° 0 mm 6 m/S 754 mmHg 46%
    15:00 +38°C° 0 mm 6 m/S 754 mmHg 49%
    16:00 +36°C° 0 mm 6 m/S 753 mmHg 52%
    17:00 +34°C° 0 mm 6 m/S 754 mmHg 61%
    18:00 +32°C° 0 mm 5 m/S 754 mmHg 70%
    19:00 +29°C° 0 mm 5 m/S 755 mmHg 78%
    20:00 +28°C° 0 mm 5 m/S 755 mmHg 82%
    21:00 +28°C° 0 mm 5 m/S 756 mmHg 86%
    22:00 +27°C° 0 mm 5 m/S 756 mmHg 91%
    23:00 +27°C° 0,1 mm 5 m/S 756 mmHg 91%
    Mehr zeigen